,,PA_Meas_PMT16A,,PR_Meas_QMR101_102,,RH_Meas_QMH101,,SR_Meas_QMS101,,TA_Meas_QMH101,,GenWind,,GenWind,
time,status,PA,status,PR,status,RH,status,SR,status,TA,status,DirAvg,status,SpdAvg,
2013-01-04, 00:00:04,VALID,918.212,VALID,0,VALID,94.8887,VALID,0,VALID,19.7043,VALID,20,VALID,0,
2013-01-04, 00:01:04,VALID,918.271,VALID,0,VALID,94.9344,VALID,0,VALID,19.7433,VALID,20,VALID,0,
2013-01-04, 00:02:04,VALID,918.301,VALID,0,VALID,94.6828,VALID,0,VALID,19.7253,VALID,20,VALID,0,
2013-01-04, 00:03:04,VALID,918.311,VALID,0,VALID,94.4999,VALID,0,VALID,19.6653,VALID,20,VALID,0,
2013-01-04, 00:04:04,VALID,918.325,VALID,0,VALID,94.6676,VALID,0,VALID,19.7043,VALID,20,VALID,0,
2013-01-04, 00:05:04,VALID,918.348,VALID,0,VALID,94.6981,VALID,0,VALID,19.7238,VALID,20,VALID,0,
2013-01-04, 00:06:04,VALID,918.354,VALID,0,VALID,94.6447,VALID,0.107441,VALID,19.7238,VALID,20,VALID,0,
2013-01-04, 00:07:04,VALID,918.328,VALID,0,VALID,94.4236,VALID,0,VALID,19.6653,VALID,20,VALID,0,
2013-01-04, 00:08:04,VALID,918.334,VALID,0,VALID,94.3245,VALID,0,VALID,19.6458,VALID,20,VALID,0,
2013-01-04, 00:09:04,VALID,918.333,VALID,0,VALID,94.66,VALID,0,VALID,19.6248,VALID,20,VALID,0,
2013-01-04, 00:10:04,VALID,918.348,VALID,0,VALID,94.9725,VALID,0,VALID,19.6653,VALID,20,VALID,0,
2013-01-04, 00:11:04,VALID,918.35,VALID,0,VALID,95.125,VALID,0,VALID,19.6653,VALID,20,VALID,0,
2013-01-04, 00:12:04,VALID,918.354,VALID,0,VALID,95.1479,VALID,0,VALID,19.6653,VALID,20,VALID,0,
2013-01-04, 00:13:04,VALID,918.347,VALID,0,VALID,95.1097,VALID,0,VALID,19.6458,VALID,20,VALID,0,
2013-01-04, 00:14:04,VALID,918.325,VALID,0,VALID,95.0335,VALID,0,VALID,19.6863,VALID,20,VALID,0,
2013-01-04, 00:15:04,VALID,918.334,VALID,0,VALID,95.0792,VALID,0,VALID,19.6653,VALID,20,VALID,0,
2013-01-04, 00:16:04,VALID,918.328,VALID,0,VALID,95.003,VALID,0,VALID,19.6848,VALID,20,VALID,0,
2013-01-04, 00:17:04,VALID,918.332,VALID,0,VALID,94.7743,VALID,0,VALID,19.6653,VALID,20,VALID,0,
2013-01-04, 00:18:04,VALID,918.33,VALID,0,VALID,94.7438,VALID,0,VALID,19.7058,VALID,20,VALID,0,
2013-01-04, 00:19:04,VALID,918.361,VALID,0,VALID,94.4999,VALID,0,VALID,19.6668,VALID,20,VALID,0,
2013-01-04, 00:20:04,VALID,918.359,VALID,0,VALID,94.3169,VALID,0,VALID,19.6458,VALID,20,VALID,0,
2013-01-04, 00:21:04,VALID,918.335,VALID,0,VALID,94.3474,VALID,0,VALID,19.6458,VALID,20,VALID,0,
2013-01-04, 00:22:04,VALID,918.297,VALID,0,VALID,94.5837,VALID,0,VALID,19.7043,VALID,20,VALID,0,
2013-01-04, 00:23:04,VALID,918.279,VALID,0,VALID,94.8887,VALID,0,VALID,19.7433,VALID,20,VALID,0,
2013-01-04, 00:24:04,VALID,918.275,VALID,0,VALID,95.064,VALID,0,VALID,19.7628,VALID,20,VALID,0,
2013-01-04, 00:25:04,VALID,918.29,VALID,0,VALID,95.0335,VALID,0,VALID,19.7238,VALID,20,VALID,0,
2013-01-04, 00:26:04,VALID,918.271,VALID,0,VALID,94.9649,VALID,0,VALID,19.7043,VALID,20,VALID,0,
2013-01-04, 00:27:04,VALID,918.3,VALID,0,VALID,94.9039,VALID,0,VALID,19.6848,VALID,20,VALID,0,
2013-01-04, 00:28:04,VALID,918.267,VALID,0,VALID,94.538,VALID,0,VALID,19.5873,VALID,20,VALID,0,
2013-01-04, 00:29:04,VALID,918.227,VALID,0,VALID,94.7362,VALID,0,VALID,19.5678,VALID,20,VALID,0,
2013-01-04, 00:30:05,VALID,918.237,VALID,0,VALID,94.6981,VALID,0,VALID,19.5288,VALID,20,VALID,0,
2013-01-04, 00:31:05,VALID,918.255,VALID,0,VALID,94.8582,VALID,0,VALID,19.5303,VALID,20,VALID,0,
2013-01-04, 00:32:05,VALID,918.247,VALID,0,VALID,95.1555,VALID,0,VALID,19.5483,VALID,20,VALID,0,
2013-01-04, 00:33:05,VALID,918.268,VALID,0,VALID,94.9649,VALID,0,VALID,19.4898,VALID,20,VALID,0,
2013-01-04, 00:34:05,VALID,918.254,VALID,0,VALID,94.8353,VALID,0,VALID,19.4523,VALID,20,VALID,0,
2013-01-04, 00:35:05,VALID,918.254,VALID,0,VALID,94.9192,VALID,0,VALID,19.4718,VALID,20,VALID,0,
2013-01-04, 00:36:05,VALID,918.268,VALID,0,VALID,95.0716,VALID,0,VALID,19.4913,VALID,20,VALID,0,
2013-01-04, 00:37:05,VALID,918.285,VALID,0,VALID,95.125,VALID,0,VALID,19.4703,VALID,20,VALID,0,
2013-01-04, 00:38:05,VALID,918.294,VALID,0,VALID,95.0335,VALID,0,VALID,19.4718,VALID,20,VALID,0,
2013-01-04, 00:39:05,VALID,918.281,VALID,0,VALID,94.6447,VALID,0,VALID,19.3923,VALID,20,VALID,0,
2013-01-04, 00:40:05,VALID,918.289,VALID,0,VALID,94.9496,VALID,0,VALID,19.4132,VALID,20,VALID,0,
2013-01-04, 00:41:05,VALID,918.248,VALID,0,VALID,95.2546,VALID,0,VALID,19.4703,VALID,20,VALID,0,
2013-01-04, 00:42:05,VALID,918.227,VALID,0,VALID,95.3003,VALID,0,VALID,19.4118,VALID,20,VALID,0,
2013-01-04, 00:43:05,VALID,918.183,VALID,0,VALID,95.1555,VALID,0,VALID,19.4118,VALID,20,VALID,0,
2013-01-04, 00:44:05,VALID,918.181,VALID,0,VALID,95.2165,VALID,0,VALID,19.3728,VALID,20,VALID,0,
2013-01-04, 00:45:05,VALID,918.162,VALID,0,VALID,95.4375,VALID,0,VALID,19.3923,VALID,20,VALID,0,
2013-01-04, 00:46:05,VALID,918.134,VALID,0,VALID,95.5519,VALID,0,VALID,19.3923,VALID,20,VALID,0,
2013-01-04, 00:47:05,VALID,918.123,VALID,0,VALID,95.773,VALID,0,VALID,19.4313,VALID,20,VALID,0,
2013-01-04, 00:48:05,VALID,918.111,VALID,0,VALID,95.8645,VALID,0,VALID,19.4508,VALID,20,VALID,0,
2013-01-04, 00:49:05,VALID,918.074,VALID,0,VALID,95.7349,VALID,0,VALID,19.4313,VALID,20,VALID,0,
2013-01-04, 00:50:05,VALID,918.051,VALID,0,VALID,95.6357,VALID,0,VALID,19.4523,VALID,20,VALID,0,
2013-01-04, 00:51:05,VALID,918.023,VALID,0,VALID,95.7196,VALID,0,VALID,19.4508,VALID,20,VALID,0,
2013-01-04, 00:52:05,VALID,918.012,VALID,0,VALID,95.8645,VALID,0,VALID,19.4898,VALID,20,VALID,0,
2013-01-04, 00:53:05,VALID,918.023,VALID,0,VALID,95.6967,VALID,0,VALID,19.4913,VALID,20,VALID,0,
2013-01-04, 00:54:05,VALID,918.008,VALID,0,VALID,95.5519,VALID,0,VALID,19.4508,VALID,20,VALID,0,
2013-01-04, 00:55:05,VALID,918.037,VALID,0,VALID,95.6967,VALID,0,VALID,19.4718,VALID,303,VALID,0,
2013-01-04, 00:56:05,VALID,918,VALID,0,VALID,95.712,VALID,0,VALID,19.4913,VALID,303,VALID,0,
2013-01-04, 00:57:05,VALID,917.971,VALID,0,VALID,95.5824,VALID,0,VALID,19.4718,VALID,303,VALID,0,
2013-01-04, 00:58:05,VALID,917.967,VALID,0,VALID,95.6129,VALID,0,VALID,19.4703,VALID,303,VALID,0,
2013-01-04, 00:59:05,VALID,917.95,VALID,0,VALID,95.4757,VALID,0,VALID,19.5108,VALID,303,VALID,0,
2013-01-04, 01:00:05,VALID,917.943,VALID,0,VALID,95.4909,VALID,0,VALID,19.5093,VALID,303,VALID,0,
2013-01-04, 01:01:05,VALID,917.926,VALID,0,VALID,95.5519,VALID,0,VALID,19.5693,VALID,303,VALID,0,
2013-01-04, 01:02:05,VALID,917.889,VALID,0,VALID,95.3232,VALID,0,VALID,19.5678,VALID,303,VALID,0,
2013-01-04, 01:03:05,VALID,917.829,VALID,0,VALID,94.9954,VALID,0,VALID,19.5498,VALID,303,VALID,0,
2013-01-04, 01:04:05,VALID,917.789,VALID,0,VALID,94.7972,VALID,0,VALID,19.5108,VALID,303,VALID,0,
2013-01-04, 01:05:05,VALID,917.766,VALID,0,VALID,94.8734,VALID,0,VALID,19.5303,VALID,303,VALID,0,
2013-01-04, 01:06:05,VALID,917.731,VALID,0,VALID,95.0564,VALID,0,VALID,19.5288,VALID,303,VALID,0,
2013-01-04, 01:07:05,VALID,917.716,VALID,0,VALID,94.7972,VALID,0,VALID,19.4898,VALID,303,VALID,0,
2013-01-04, 01:08:05,VALID,917.687,VALID,0,VALID,94.6142,VALID,0,VALID,19.4327,VALID,303,VALID,0,
2013-01-04, 01:09:05,VALID,917.673,VALID,0,VALID,94.9801,VALID,0,VALID,19.4118,VALID,303,VALID,0,
2013-01-04, 01:10:05,VALID,917.632,VALID,0,VALID,94.9268,VALID,0,VALID,19.4327,VALID,303,VALID,0,
2013-01-04, 01:11:05,VALID,917.606,VALID,0,VALID,94.9878,VALID,0,VALID,19.3728,VALID,303,VALID,0,
2013-01-04, 01:12:05,VALID,917.579,VALID,0,VALID,95.1479,VALID,0,VALID,19.3728,VALID,303,VALID,0,
2013-01-04, 01:13:05,VALID,917.581,VALID,0,VALID,95.3842,VALID,0,VALID,19.4118,VALID,303,VALID,0,
2013-01-04, 01:14:05,VALID,917.557,VALID,0,VALID,95.5138,VALID,0,VALID,19.4508,VALID,303,VALID,0,
2013-01-04, 01:15:05,VALID,917.563,VALID,0,VALID,95.6129,VALID,0,VALID,19.4898,VALID,303,VALID,0,
2013-01-04, 01:16:05,VALID,917.527,VALID,0,VALID,95.6281,VALID,0,VALID,19.5288,VALID,319,VALID,0,
2013-01-04, 01:17:05,VALID,917.541,VALID,0,VALID,95.5519,VALID,0,VALID,19.5288,VALID,318,VALID,0,
2013-01-04, 01:18:05,VALID,917.566,VALID,0,VALID,95.3994,VALID,0,VALID,19.5288,VALID,318,VALID,0,
2013-01-04, 01:19:05,VALID,917.521,VALID,0,VALID,95.3537,VALID,0,VALID,19.5093,VALID,318,VALID,0,
2013-01-04, 01:20:05,VALID,917.504,VALID,0,VALID,95.4757,VALID,0,VALID,19.5093,VALID,318,VALID,0,
2013-01-04, 01:21:05,VALID,917.488,VALID,0,VALID,95.2927,VALID,0,VALID,19.4913,VALID,323,VALID,0,
2013-01-04, 01:22:05,VALID,917.517,VALID,0,VALID,95.4757,VALID,0,VALID,19.5093,VALID,321,VALID,0,
2013-01-04, 01:23:05,VALID,917.461,VALID,0,VALID,95.5138,VALID,0,VALID,19.5288,VALID,317,VALID,0,
2013-01-04, 01:24:05,VALID,917.446,VALID,0,VALID,95.5443,VALID,0,VALID,19.5093,VALID,317,VALID,0,
2013-01-04, 01:25:05,VALID,917.42,VALID,0,VALID,95.2393,VALID,0,VALID,19.4508,VALID,317,VALID,0,
2013-01-04, 01:26:05,VALID,917.448,VALID,0,VALID,95.1555,VALID,0,VALID,19.4118,VALID,317,VALID,0,
2013-01-04, 01:27:05,VALID,917.437,VALID,0,VALID,95.3079,VALID,0,VALID,19.4508,VALID,317,VALID,0,
2013-01-04, 01:28:05,VALID,917.435,VALID,0,VALID,95.4528,VALID,0,VALID,19.4508,VALID,317,VALID,0,
2013-01-04, 01:29:05,VALID,917.405,VALID,0,VALID,95.5748,VALID,0,VALID,19.5093,VALID,317,VALID,0,
2013-01-04, 01:30:05,VALID,917.378,VALID,0,VALID,95.3994,VALID,0,VALID,19.4898,VALID,317,VALID,0,
2013-01-04, 01:31:05,VALID,917.372,VALID,0,VALID,95.1936,VALID,0,VALID,19.4118,VALID,317,VALID,0,
2013-01-04, 01:32:05,VALID,917.365,VALID,0,VALID,95.4071,VALID,0.107441,VALID,19.4118,VALID,317,VALID,0,
2013-01-04, 01:33:05,VALID,917.315,VALID,0,VALID,95.3766,VALID,0,VALID,19.4118,VALID,317,VALID,0,
2013-01-04, 01:34:05,VALID,917.31,VALID,0,VALID,95.4375,VALID,0,VALID,19.3923,VALID,317,VALID,0,
2013-01-04, 01:35:05,VALID,917.309,VALID,0,VALID,95.4604,VALID,0,VALID,19.3728,VALID,317,VALID,0,
2013-01-04, 01:36:05,VALID,917.293,VALID,0,VALID,95.5976,VALID,0,VALID,19.3923,VALID,317,VALID,0,
2013-01-04, 01:37:05,VALID,917.269,VALID,0,VALID,95.6281,VALID,0,VALID,19.3923,VALID,317,VALID,0,
2013-01-04, 01:38:05,VALID,917.279,VALID,0,VALID,95.4833,VALID,0,VALID,19.3533,VALID,317,VALID,0,
2013-01-04, 01:39:05,VALID,917.266,VALID,0,VALID,95.3384,VALID,0,VALID,19.3143,VALID,317,VALID,0,
2013-01-04, 01:40:05,VALID,917.241,VALID,0,VALID,95.59,VALID,0,VALID,19.3742,VALID,317,VALID,0,
2013-01-04, 01:41:05,VALID,917.218,VALID,0,VALID,95.3994,VALID,0,VALID,19.3143,VALID,317,VALID,0,
2013-01-04, 01:42:05,VALID,917.235,VALID,0,VALID,95.4604,VALID,0.107441,VALID,19.3143,VALID,317,VALID,0,
2013-01-04, 01:43:05,VALID,917.215,VALID,0,VALID,95.4833,VALID,0,VALID,19.3143,VALID,317,VALID,0,
2013-01-04, 01:44:05,VALID,917.215,VALID,0,VALID,95.5595,VALID,0,VALID,19.3157,VALID,317,VALID,0,
2013-01-04, 01:45:05,VALID,917.203,VALID,0,VALID,95.712,VALID,0,VALID,19.3742,VALID,317,VALID,0,
2013-01-04, 01:46:05,VALID,917.202,VALID,0,VALID,95.6891,VALID,0,VALID,19.3923,VALID,317,VALID,0,
2013-01-04, 01:47:05,VALID,917.2,VALID,0,VALID,95.6586,VALID,0,VALID,19.3728,VALID,317,VALID,0,
2013-01-04, 01:48:05,VALID,917.14,VALID,0,VALID,95.6586,VALID,0,VALID,19.3937,VALID,317,VALID,0,
2013-01-04, 01:49:05,VALID,917.115,VALID,0,VALID,95.468,VALID,0,VALID,19.3143,VALID,317,VALID,0,
2013-01-04, 01:50:05,VALID,917.116,VALID,0,VALID,95.3384,VALID,0,VALID,19.2753,VALID,317,VALID,0,
2013-01-04, 01:51:05,VALID,917.082,VALID,0,VALID,95.3003,VALID,0,VALID,19.2767,VALID,317,VALID,0,
2013-01-04, 01:52:05,VALID,917.075,VALID,0,VALID,95.2088,VALID,0,VALID,19.2767,VALID,317,VALID,0,
2013-01-04, 01:53:05,VALID,917.017,VALID,0,VALID,95.1631,VALID,0,VALID,19.2363,VALID,317,VALID,0,
2013-01-04, 01:54:05,VALID,917.024,VALID,0,VALID,95.1402,VALID,0,VALID,19.2168,VALID,317,VALID,0,
2013-01-04, 01:55:05,VALID,917.01,VALID,0,VALID,94.7209,VALID,0,VALID,19.1207,VALID,317,VALID,0,
2013-01-04, 01:56:05,VALID,916.998,VALID,0,VALID,94.8734,VALID,0,VALID,19.0218,VALID,317,VALID,0,
2013-01-04, 01:57:05,VALID,917.013,VALID,0,VALID,95.2165,VALID,0,VALID,19.0218,VALID,317,VALID,0,
2013-01-04, 01:58:05,VALID,916.979,VALID,0,VALID,95.6891,VALID,0,VALID,19.0998,VALID,317,VALID,0,
2013-01-04, 01:59:05,VALID,916.946,VALID,0,VALID,95.9026,VALID,0,VALID,19.1597,VALID,317,VALID,0,
2013-01-04, 02:00:05,VALID,916.94,VALID,0,VALID,96.3142,VALID,0,VALID,19.2168,VALID,317,VALID,0,
2013-01-04, 02:01:05,VALID,916.89,VALID,0,VALID,96.3752,VALID,0,VALID,19.3157,VALID,317,VALID,0,
2013-01-04, 02:02:05,VALID,916.875,VALID,0,VALID,96.3066,VALID,0,VALID,19.3143,VALID,317,VALID,0,
2013-01-04, 02:03:05,VALID,916.863,VALID,0,VALID,96.2304,VALID,0,VALID,19.3338,VALID,317,VALID,0,
2013-01-04, 02:04:05,VALID,916.851,VALID,0,VALID,96.2761,VALID,0,VALID,19.3742,VALID,317,VALID,0,
2013-01-04, 02:05:05,VALID,916.849,VALID,0,VALID,96.2685,VALID,0,VALID,19.4132,VALID,317,VALID,0,
2013-01-04, 02:06:05,VALID,916.813,VALID,0,VALID,96.1923,VALID,0,VALID,19.4132,VALID,317,VALID,0,
2013-01-04, 02:07:05,VALID,916.806,VALID,0,VALID,96.1694,VALID,0,VALID,19.4327,VALID,317,VALID,0,
2013-01-04, 02:08:05,VALID,916.796,VALID,0,VALID,96.177,VALID,0,VALID,19.4118,VALID,317,VALID,0,
2013-01-04, 02:09:05,VALID,916.789,VALID,0,VALID,96.2533,VALID,0,VALID,19.4718,VALID,317,VALID,0,
2013-01-04, 02:10:05,VALID,916.773,VALID,0,VALID,96.2456,VALID,0.107441,VALID,19.4898,VALID,317,VALID,0,
2013-01-04, 02:11:05,VALID,916.801,VALID,0,VALID,96.1389,VALID,0,VALID,19.4703,VALID,317,VALID,0,
2013-01-04, 02:12:05,VALID,916.764,VALID,0,VALID,95.9559,VALID,0,VALID,19.4508,VALID,317,VALID,0,
2013-01-04, 02:13:05,VALID,916.739,VALID,0,VALID,96.0779,VALID,0,VALID,19.4898,VALID,34,VALID,0,
2013-01-04, 02:14:05,VALID,916.699,VALID,0,VALID,95.9636,VALID,0,VALID,19.4313,VALID,41,VALID,0,
2013-01-04, 02:15:05,VALID,916.701,VALID,0,VALID,96.177,VALID,0,VALID,19.5303,VALID,41,VALID,0,
2013-01-04, 02:16:05,VALID,916.71,VALID,0,VALID,95.9864,VALID,0,VALID,19.5498,VALID,41,VALID,0,
2013-01-04, 02:17:05,VALID,916.673,VALID,0,VALID,95.8721,VALID,0,VALID,19.5288,VALID,41,VALID,0,
2013-01-04, 02:18:05,VALID,916.622,VALID,0,VALID,95.8721,VALID,0,VALID,19.5678,VALID,41,VALID,0,
2013-01-04, 02:19:05,VALID,916.601,VALID,0,VALID,95.8568,VALID,0,VALID,19.5888,VALID,41,VALID,0,
2013-01-04, 02:20:05,VALID,916.61,VALID,0,VALID,95.7349,VALID,0,VALID,19.5873,VALID,41,VALID,0,
2013-01-04, 02:21:05,VALID,916.607,VALID,0,VALID,95.5824,VALID,0,VALID,19.5693,VALID,41,VALID,0,
2013-01-04, 02:22:05,VALID,916.575,VALID,0,VALID,95.7272,VALID,0,VALID,19.5678,VALID,41,VALID,0,
2013-01-04, 02:23:05,VALID,916.555,VALID,0,VALID,95.6434,VALID,0,VALID,19.5678,VALID,41,VALID,0,
2013-01-04, 02:24:05,VALID,916.502,VALID,0,VALID,95.6281,VALID,0,VALID,19.5888,VALID,41,VALID,0,
2013-01-04, 02:25:05,VALID,916.494,VALID,0,VALID,95.6281,VALID,0,VALID,19.6083,VALID,41,VALID,0,
2013-01-04, 02:26:05,VALID,916.431,VALID,0,VALID,95.7272,VALID,0,VALID,19.6473,VALID,31,VALID,0,
2013-01-04, 02:27:05,VALID,916.395,VALID,0,VALID,95.4071,VALID,0,VALID,19.6068,VALID,33,VALID,0,
2013-01-04, 02:28:05,VALID,916.384,VALID,0,VALID,95.4375,VALID,0,VALID,19.6473,VALID,38,VALID,0,
2013-01-04, 02:29:05,VALID,916.374,VALID,0,VALID,95.4452,VALID,0,VALID,19.6263,VALID,38,VALID,0,
2013-01-04, 02:30:05,VALID,916.333,VALID,0,VALID,95.4757,VALID,0,VALID,19.6653,VALID,38,VALID,0,
2013-01-04, 02:31:05,VALID,916.325,VALID,0,VALID,95.247,VALID,0,VALID,19.6653,VALID,38,VALID,0,
2013-01-04, 02:32:05,VALID,916.292,VALID,0,VALID,95.3766,VALID,0,VALID,19.7058,VALID,37,VALID,0,
2013-01-04, 02:33:05,VALID,916.245,VALID,0,VALID,95.2088,VALID,0,VALID,19.7043,VALID,38,VALID,0,
2013-01-04, 02:34:05,VALID,916.252,VALID,0,VALID,95.1479,VALID,0,VALID,19.7253,VALID,37,VALID,0,
2013-01-04, 02:35:05,VALID,916.214,VALID,0,VALID,95.2546,VALID,0,VALID,19.7433,VALID,14,VALID,0,
2013-01-04, 02:36:05,VALID,916.196,VALID,0,VALID,95.1097,VALID,0,VALID,19.7238,VALID,21,VALID,0,
2013-01-04, 02:37:05,VALID,916.184,VALID,0,VALID,95.064,VALID,0,VALID,19.7448,VALID,21,VALID,0,
2013-01-04, 02:38:05,VALID,916.161,VALID,0,VALID,95.1402,VALID,0,VALID,19.7433,VALID,21,VALID,0,
2013-01-04, 02:39:05,VALID,916.158,VALID,0,VALID,95.2165,VALID,0,VALID,19.7823,VALID,21,VALID,0,
2013-01-04, 02:40:05,VALID,916.137,VALID,0,VALID,95.1631,VALID,0,VALID,19.7823,VALID,21,VALID,0,
2013-01-04, 02:41:05,VALID,916.139,VALID,0,VALID,95.125,VALID,0,VALID,19.7823,VALID,21,VALID,0,
2013-01-04, 02:42:05,VALID,916.102,VALID,0,VALID,95.0945,VALID,0,VALID,19.7838,VALID,21,VALID,0,
2013-01-04, 02:43:05,VALID,916.104,VALID,0,VALID,95.1631,VALID,0,VALID,19.8033,VALID,21,VALID,0,
2013-01-04, 02:44:05,VALID,916.075,VALID,0,VALID,95.1479,VALID,0,VALID,19.7628,VALID,21,VALID,0,
2013-01-04, 02:45:05,VALID,916.125,VALID,0,VALID,95.2165,VALID,0,VALID,19.7823,VALID,21,VALID,0,
2013-01-04, 02:46:05,VALID,916.133,VALID,0,VALID,95.1707,VALID,0,VALID,19.8228,VALID,21,VALID,0,
2013-01-04, 02:47:05,VALID,916.137,VALID,0,VALID,95.2165,VALID,0,VALID,19.8033,VALID,21,VALID,0,
2013-01-04, 02:48:05,VALID,916.138,VALID,0,VALID,95.1936,VALID,0,VALID,19.7823,VALID,21,VALID,0,
2013-01-04, 02:49:05,VALID,916.131,VALID,0,VALID,95.1936,VALID,0,VALID,19.7823,VALID,21,VALID,0,
2013-01-04, 02:50:05,VALID,916.149,VALID,0,VALID,95.1021,VALID,0,VALID,19.8033,VALID,21,VALID,0,
2013-01-04, 02:51:05,VALID,916.164,VALID,0,VALID,94.9878,VALID,0,VALID,19.7643,VALID,21,VALID,0,
2013-01-04, 02:52:05,VALID,916.172,VALID,0,VALID,95.1783,VALID,0,VALID,19.7238,VALID,21,VALID,0,
2013-01-04, 02:53:05,VALID,916.195,VALID,0,VALID,95.247,VALID,0,VALID,19.7238,VALID,21,VALID,0,
2013-01-04, 02:54:05,VALID,916.224,VALID,0,VALID,95.2775,VALID,0,VALID,19.7253,VALID,272,VALID,0,
2013-01-04, 02:55:05,VALID,916.271,VALID,0,VALID,95.3461,VALID,0,VALID,19.7043,VALID,272,VALID,0,
2013-01-04, 02:56:05,VALID,916.285,VALID,0,VALID,95.3308,VALID,0,VALID,19.7043,VALID,272,VALID,0,
2013-01-04, 02:57:05,VALID,916.273,VALID,0,VALID,95.3613,VALID,0,VALID,19.7058,VALID,272,VALID,0,
2013-01-04, 02:58:05,VALID,916.297,VALID,0,VALID,95.3461,VALID,0,VALID,19.6653,VALID,272,VALID,0,
2013-01-04, 02:59:05,VALID,916.312,VALID,0,VALID,95.3537,VALID,0,VALID,19.6653,VALID,272,VALID,0,
2013-01-04, 03:00:05,VALID,916.291,VALID,0,VALID,95.2851,VALID,0,VALID,19.6458,VALID,272,VALID,0,
2013-01-04, 03:01:05,VALID,916.28,VALID,0,VALID,95.1936,VALID,0,VALID,19.5873,VALID,272,VALID,0,
2013-01-04, 03:02:05,VALID,916.282,VALID,0,VALID,95.1936,VALID,0,VALID,19.5678,VALID,272,VALID,0,
2013-01-04, 03:03:05,VALID,916.285,VALID,0,VALID,95.2393,VALID,0,VALID,19.5678,VALID,272,VALID,0,
2013-01-04, 03:04:05,VALID,916.304,VALID,0,VALID,95.2165,VALID,0.107441,VALID,19.5288,VALID,272,VALID,0,
2013-01-04, 03:05:05,VALID,916.284,VALID,0,VALID,95.2546,VALID,0,VALID,19.5093,VALID,272,VALID,0,
2013-01-04, 03:06:05,VALID,916.329,VALID,0,VALID,95.3079,VALID,0,VALID,19.4703,VALID,272,VALID,0,
2013-01-04, 03:07:05,VALID,916.38,VALID,0,VALID,95.3537,VALID,0,VALID,19.4508,VALID,272,VALID,0,
2013-01-04, 03:08:05,VALID,916.342,VALID,0,VALID,95.4528,VALID,0,VALID,19.4313,VALID,272,VALID,0,
2013-01-04, 03:09:05,VALID,916.352,VALID,0,VALID,95.5062,VALID,0,VALID,19.4313,VALID,272,VALID,0,
2013-01-04, 03:10:04,VALID,916.355,VALID,0,VALID,95.5824,VALID,0,VALID,19.4313,VALID,272,VALID,0,
2013-01-04, 03:11:04,VALID,916.346,VALID,0,VALID,95.7272,VALID,0,VALID,19.4508,VALID,272,VALID,0,
2013-01-04, 03:12:04,VALID,916.356,VALID,0,VALID,95.8111,VALID,0,VALID,19.4313,VALID,272,VALID,0,
2013-01-04, 03:13:04,VALID,916.345,VALID,0,VALID,95.9178,VALID,0,VALID,19.4508,VALID,272,VALID,0,
2013-01-04, 03:14:04,VALID,916.336,VALID,0,VALID,95.9559,VALID,0,VALID,19.4703,VALID,272,VALID,0,
2013-01-04, 03:15:04,VALID,916.348,VALID,0,VALID,96.0169,VALID,0,VALID,19.4703,VALID,272,VALID,0,
2013-01-04, 03:16:04,VALID,916.31,VALID,0,VALID,96.0779,VALID,0,VALID,19.4898,VALID,272,VALID,0,
2013-01-04, 03:17:04,VALID,916.298,VALID,0,VALID,95.9941,VALID,0,VALID,19.4898,VALID,272,VALID,0,
2013-01-04, 03:18:04,VALID,916.298,VALID,0,VALID,95.9864,VALID,0,VALID,19.4913,VALID,272,VALID,0,
2013-01-04, 03:19:04,VALID,916.306,VALID,0,VALID,95.9407,VALID,0,VALID,19.4508,VALID,272,VALID,0,
2013-01-04, 03:20:04,VALID,916.317,VALID,0,VALID,95.8035,VALID,0,VALID,19.4718,VALID,272,VALID,0,
2013-01-04, 03:21:04,VALID,916.317,VALID,0,VALID,95.9254,VALID,0,VALID,19.4508,VALID,272,VALID,0,
2013-01-04, 03:22:04,VALID,916.301,VALID,0,VALID,95.9864,VALID,0,VALID,19.4703,VALID,272,VALID,0,
2013-01-04, 03:23:04,VALID,916.316,VALID,0,VALID,95.9941,VALID,0,VALID,19.4703,VALID,272,VALID,0,
2013-01-04, 03:24:04,VALID,916.334,VALID,0,VALID,96.0474,VALID,0,VALID,19.4898,VALID,272,VALID,0,
2013-01-04, 03:25:04,VALID,916.299,VALID,0,VALID,95.9788,VALID,0,VALID,19.5093,VALID,272,VALID,0,
2013-01-04, 03:26:04,VALID,916.299,VALID,0,VALID,95.9864,VALID,0,VALID,19.5093,VALID,272,VALID,0,
2013-01-04, 03:27:04,VALID,916.277,VALID,0,VALID,95.834,VALID,0,VALID,19.4898,VALID,272,VALID,0,
2013-01-04, 03:28:04,VALID,916.284,VALID,0,VALID,95.8721,VALID,0,VALID,19.4703,VALID,272,VALID,0,
2013-01-04, 03:29:04,VALID,916.264,VALID,0,VALID,95.9254,VALID,0,VALID,19.4898,VALID,272,VALID,0,
2013-01-04, 03:30:04,VALID,916.262,VALID,0,VALID,95.9559,VALID,0,VALID,19.4913,VALID,272,VALID,0,
2013-01-04, 03:31:04,VALID,916.311,VALID,0,VALID,96.0169,VALID,0,VALID,19.4898,VALID,272,VALID,0,
2013-01-04, 03:32:04,VALID,916.274,VALID,0,VALID,95.9483,VALID,0,VALID,19.4508,VALID,272,VALID,0,
2013-01-04, 03:33:04,VALID,916.276,VALID,0,VALID,96.0017,VALID,0,VALID,19.4327,VALID,272,VALID,0,
2013-01-04, 03:34:04,VALID,916.283,VALID,0,VALID,96.116,VALID,0,VALID,19.4523,VALID,272,VALID,0,
2013-01-04, 03:35:04,VALID,916.314,VALID,0,VALID,96.2533,VALID,0,VALID,19.4718,VALID,272,VALID,0,
2013-01-04, 03:36:04,VALID,916.313,VALID,0,VALID,96.3829,VALID,0,VALID,19.4898,VALID,272,VALID,0,
2013-01-04, 03:37:04,VALID,916.339,VALID,0,VALID,96.3829,VALID,0,VALID,19.5288,VALID,272,VALID,0,
2013-01-04, 03:38:04,VALID,916.315,VALID,0,VALID,96.3142,VALID,0,VALID,19.5303,VALID,272,VALID,0,
2013-01-04, 03:39:04,VALID,916.3,VALID,0,VALID,96.36,VALID,0,VALID,19.5303,VALID,272,VALID,0,
2013-01-04, 03:40:04,VALID,916.248,VALID,0,VALID,96.3981,VALID,0,VALID,19.5483,VALID,272,VALID,0,
2013-01-04, 03:41:04,VALID,916.276,VALID,0,VALID,96.3905,VALID,0,VALID,19.5483,VALID,272,VALID,0,
2013-01-04, 03:42:04,VALID,916.261,VALID,0,VALID,96.4438,VALID,0,VALID,19.6083,VALID,272,VALID,0,
2013-01-04, 03:43:04,VALID,916.255,VALID,0,VALID,96.4286,VALID,0,VALID,19.6068,VALID,272,VALID,0,
2013-01-04, 03:44:04,VALID,916.275,VALID,0,VALID,96.4362,VALID,0,VALID,19.6263,VALID,272,VALID,0,
2013-01-04, 03:45:04,VALID,916.262,VALID,0,VALID,96.4133,VALID,0,VALID,19.6458,VALID,272,VALID,0,
2013-01-04, 03:46:04,VALID,916.268,VALID,0,VALID,96.3752,VALID,0,VALID,19.6248,VALID,272,VALID,0,
2013-01-04, 03:47:04,VALID,916.307,VALID,0,VALID,96.3524,VALID,0,VALID,19.6863,VALID,272,VALID,0,
2013-01-04, 03:48:04,VALID,916.275,VALID,0,VALID,96.3219,VALID,0,VALID,19.6653,VALID,272,VALID,0,
2013-01-04, 03:49:04,VALID,916.3,VALID,0,VALID,96.116,VALID,0,VALID,19.6668,VALID,272,VALID,0,
2013-01-04, 03:50:04,VALID,916.298,VALID,0,VALID,96.0017,VALID,0,VALID,19.6068,VALID,272,VALID,0,
2013-01-04, 03:51:04,VALID,916.291,VALID,0,VALID,95.9864,VALID,0,VALID,19.6068,VALID,272,VALID,0,
2013-01-04, 03:52:04,VALID,916.261,VALID,0,VALID,96.0398,VALID,0,VALID,19.6068,VALID,272,VALID,0,
2013-01-04, 03:53:04,VALID,916.291,VALID,0,VALID,96.0932,VALID,0,VALID,19.6068,VALID,272,VALID,0,
2013-01-04, 03:54:04,VALID,916.273,VALID,0,VALID,96.0855,VALID,0,VALID,19.6068,VALID,272,VALID,0,
2013-01-04, 03:55:04,VALID,916.261,VALID,0,VALID,96.116,VALID,0,VALID,19.5873,VALID,272,VALID,0,
2013-01-04, 03:56:04,VALID,916.299,VALID,0,VALID,96.1694,VALID,0,VALID,19.5678,VALID,272,VALID,0,
2013-01-04, 03:57:04,VALID,916.312,VALID,0,VALID,96.0017,VALID,0,VALID,19.5303,VALID,272,VALID,0,
2013-01-04, 03:58:04,VALID,916.337,VALID,0,VALID,95.9026,VALID,0,VALID,19.4703,VALID,272,VALID,0,
2013-01-04, 03:59:04,VALID,916.342,VALID,0,VALID,95.8873,VALID,0,VALID,19.4118,VALID,272,VALID,0,
2013-01-04, 04:00:04,VALID,916.333,VALID,0,VALID,96.055,VALID,0,VALID,19.4313,VALID,272,VALID,0,